Find OneWeb SL0573

NORAD ID: 55152 Int'l Des: 2023-004 Owner: ONEWEBN Country: UK Constellation: oneweb operational
別名: ONEWEB-0573 spacetrack, celestrak
LEOCIRCULARPOLARONEWEB_TYPE

現在のビュー

3D地球を読み込み中...

About OneWeb SL0573

OneWeb SL0573 (NORAD 55152) is a oneweb constellation satellite launched Jan 10, 2023 by ONEWEBN of UK. It operates in LEO, CIRCULAR, POLAR, ONEWEB_TYPE orbit with a mass of 148.00 kg.

次回通過

Passes for default location (London). Set your location on the main map for personalized predictions.

高度履歴

Loading altitude history...

軌道要素

1 55152U 23004N 26264.47813922 .00000056 00000-0 11046-3 0 9999
2 55152 87.9154 316.3322 0001091 103.9171 256.2082 13.18687367182384
Epoch: Sep 21, 2026 • Age: 8 hours

現在のステータス

高度 1199.6 km
遠地点 / 近地点 N/A
速度 7.26 km/s
衛星直下点 61.72°N, 158.63°W
打ち上げ日 Jan 10, 2023
運用期間 3.6 years
タイプ internet

技術仕様

分類 Payload
質量 148.00 kg
乾燥質量 140.00 kg
長さ 1.30 m
直径 1.00 m
スパン 5.00 m
形状 ? Trapezoid+2 pan
製造者 ONEWUS
バスタイプ ARROW
フェーズステータス In Orbit
所有者/国 ONEWEBN/UK

Most Searched